RH
10 10 10 10 14 18 22 25 26 23 17 12 9 9 9 7 5 7 8 9 10 9 11 12 13 14 13 14 13 12 13 14 10 16 30 25 26 34 27 27 23 13 11 8 15 26 24 20 20 17 15 13 11 11 9 8 8 8 9 9 9 9 6 5 4 3 3 3 4 5 5 6 5 5 5 7 7 8 7 8 26 37 38 39 44 58 58 56
14 17 20 24 29 32 33 31 27 22 17 13 9 8 9 7 6 6 8 10 12 12 13 13 13 13 13 13 12 13 12 12 12 12 19 24 29 31 25 24 18 12 11 8 16 22 19 17 14 14 13 11 10 9 8 7 8 8 9 9 8 7 5 4 3 3 3 4 4 4 6 6 6 5 5 8 8 9 7 8 30 46 49 55 60 72 79 77
31 32 35 36 36 35 32 29 27 23 18 14 9 8 9 9 8 6 7 9 11 13 13 13 13 13 13 13 12 13 10 13 24 23 21 27 27 20 15 14 11 12 11 9 16 18 16 14 12 12 11 10 8 7 7 6 8 8 8 9 7 5 4 3 3 3 4 5 4 4 5 5 5 5 6 9 8 10 8 5 27 47 54 64 69 74 82 86
38 37 38 38 36 33 31 31 32 30 24 17 10 8 8 9 9 8 7 7 9 11 12 12 12 12 12 12 11 10 18 31 39 36 30 27 20 14 11 8 10 11 9 13 19 17 14 13 12 10 9 8 7 7 6 6 8 7 7 8 6 5 4 3 3 3 4 5 4 4 5 5 5 5 6 6 7 9 7 4 16 41 58 64 74 79 81 86
36 36 38 39 37 33 34 38 38 38 35 29 17 8 8 9 8 10 9 6 7 8 10 11 10 11 10 9 9 10 31 43 36 34 30 21 14 13 12 8 10 10 11 19 23 20 15 13 11 9 9 7 6 6 6 6 7 6 6 6 5 4 4 4 4 4 5 4 5 5 5 5 4 5 6 4 8 7 11 17 9 29 55 53 63 80 83 85
36 36 38 40 39 37 40 42 39 38 39 40 32 14 6 9 8 9 11 9 7 6 7 9 8 9 8 9 10 18 42 43 27 33 35 27 18 11 11 9 9 11 16 25 25 19 14 12 10 8 8 7 6 6 5 6 5 6 6 5 5 5 4 4 4 4 5 5 5 5 4 5 4 5 5 4 8 7 18 33 21 30 52 44 51 74 84 87
37 37 37 38 40 41 43 41 37 35 35 40 43 29 10 6 10 8 10 11 8 7 6 7 7 6 6 11 19 34 53 45 31 32 25 21 18 10 10 9 9 11 18 27 23 15 11 9 8 6 6 6 6 5 5 6 5 6 5 5 5 4 5 4 4 4 5 5 5 5 4 5 5 5 6 5 7 9 20 37 35 40 54 57 66 78 83 86
38 39 39 38 38 40 41 39 35 34 32 33 42 45 26 9 9 9 10 12 11 10 7 7 6 6 9 14 29 46 50 42 35 27 14 13 15 10 8 8 9 11 19 28 21 12 9 8 7 6 5 5 5 4 5 5 4 5 5 5 5 4 4 4 4 4 4 5 4 5 4 5 6 4 6 8 7 11 25 40 43 44 51 66 80 79 80 82
35 39 40 40 38 37 38 37 34 31 31 32 35 47 45 24 10 10 12 12 12 11 8 9 7 8 12 15 36 49 35 30 30 19 10 11 12 7 8 10 11 15 23 26 19 11 9 7 7 6 5 5 5 4 4 5 5 5 5 5 4 4 4 4 4 4 4 4 4 4 5 5 5 5 5 7 9 15 32 44 47 50 54 66 79 75 73 73
26 34 39 41 40 37 36 36 33 29 29 32 33 42 50 32 11 11 13 12 12 11 10 9 7 11 16 25 49 47 23 25 28 17 13 13 11 8 12 16 16 21 23 19 15 11 9 7 6 6 6 5 5 6 5 5 5 4 5 5 4 3 3 4 4 4 4 4 5 4 5 5 4 6 6 7 13 20 36 46 45 50 53 60 74 72 64 59
17 25 33 38 42 39 36 35 32 28 27 31 34 38 43 31 16 14 11 12 11 10 11 7 9 14 17 37 58 41 18 22 24 19 19 15 12 13 20 22 18 19 19 14 13 11 9 7 8 8 7 6 6 6 5 5 5 4 5 5 5 5 4 4 4 4 5 5 5 4 5 5 4 7 5 9 16 19 32 42 42 46 45 49 65 72 61 53
12 17 23 29 37 38 35 34 30 27 25 30 35 35 37 31 25 21 11 11 11 10 10 7 12 13 19 46 57 35 17 18 20 21 21 18 17 19 23 23 17 16 16 13 11 9 9 9 10 9 7 8 6 5 5 4 5 4 5 6 6 6 5 5 4 4 5 5 5 4 6 5 6 7 5 11 17 16 26 33 36 46 46 44 59 70 63 57
11 12 16 20 27 32 33 32 29 26 23 28 35 34 34 32 32 29 17 11 10 11 8 9 13 14 33 53 41 25 18 16 18 20 21 19 20 21 22 20 16 16 16 13 10 8 10 10 11 10 8 10 8 7 7 5 5 5 5 6 6 5 5 5 4 4 4 5 4 5 8 6 5 5 7 13 16 16 23 26 28 40 45 43 56 67 65 62
11 11 12 15 19 24 28 30 29 26 22 24 34 35 32 32 32 31 26 19 13 11 9 11 13 17 46 52 24 18 20 17 18 18 19 19 19 20 19 18 17 17 18 15 11 9 10 10 10 10 10 10 8 8 8 7 6 6 5 5 6 6 6 4 4 5 4 4 4 5 8 7 5 5 9 12 13 15 20 25 25 33 41 41 52 61 63 64
10 11 11 12 14 18 22 26 27 25 22 22 32 36 31 30 31 30 32 30 22 15 8 13 18 27 52 46 21 18 15 16 18 15 17 16 16 15 13 15 16 16 16 14 12 10 11 11 10 10 9 9 8 8 7 7 7 6 7 7 6 6 6 5 4 5 4 4 5 6 8 6 5 5 9 10 12 14 18 26 25 29 39 40 47 55 60 61
9 10 12 11 11 13 16 20 22 23 21 21 30 35 30 28 30 28 30 33 30 19 11 25 42 47 51 36 22 18 12 16 18 14 15 13 13 11 10 13 12 12 13 11 12 11 11 10 10 9 9 9 8 7 7 8 8 7 7 8 8 6 5 5 5 4 4 5 5 6 7 6 5 6 8 8 10 11 15 28 30 29 37 38 45 53 61 61
8 10 11 12 11 11 13 15 17 18 18 20 28 33 30 28 30 30 30 33 33 23 14 30 52 55 46 31 22 18 14 18 17 13 14 12 12 9 9 12 10 12 11 11 12 11 11 10 10 10 9 10 8 7 10 11 11 9 7 7 7 7 6 6 6 5 4 5 5 6 6 6 7 7 8 7 8 8 10 26 37 37 39 41 44 49 58 63
6 10 11 11 12 11 11 13 15 15 15 22 30 32 31 28 30 31 30 32 34 31 23 28 44 47 38 29 24 17 14 17 16 14 13 12 13 10 10 11 10 11 10 11 11 10 12 10 10 12 10 10 9 9 12 13 12 12 11 8 7 7 6 6 6 6 5 5 6 7 6 6 7 8 8 7 7 8 7 15 32 42 44 41 40 43 53 61
5 9 11 11 13 11 12 13 14 17 20 28 32 30 31 35 41 35 28 38 40 34 29 30 37 35 25 22 21 16 16 17 15 14 13 12 13 11 11 11 10 10 9 11 11 9 11 11 12 14 13 12 10 9 13 14 13 13 13 9 8 8 7 6 6 6 6 7 7 6 7 6 6 7 7 8 7 8 8 7 20 43 49 38 35 40 48 55
4 7 10 12 12 11 13 14 17 23 28 34 31 33 47 52 54 44 36 49 46 29 24 24 25 22 16 16 17 17 17 16 14 15 14 12 13 11 11 11 10 10 11 12 12 10 10 13 15 13 14 16 15 15 16 16 14 14 13 10 8 9 8 7 6 6 6 8 8 6 7 6 6 7 7 8 7 7 10 8 13 37 51 43 42 46 46 51
3 7 10 12 12 12 14 16 24 30 32 35 30 41 56 43 35 37 36 42 38 27 25 23 19 16 14 15 15 17 16 15 14 13 14 13 12 11 11 11 11 11 11 11 12 12 12 15 15 13 16 18 18 18 18 17 15 14 13 11 9 8 8 8 8 7 8 10 10 8 8 7 6 8 7 7 8 8 9 11 10 19 30 30 33 44 48 50
4 6 9 12 12 14 17 22 31 33 32 34 29 40 50 32 23 30 30 29 27 26 23 20 19 15 13 16 16 16 14 13 14 13 13 13 11 11 11 10 11 12 11 10 12 15 16 15 12 12 16 17 16 16 16 16 15 14 13 11 10 8 8 11 11 9 8 10 11 9 8 9 8 7 7 7 8 9 8 11 11 9 14 14 16 33 46 49
7 4 7 12 14 16 21 26 32 33 33 31 27 37 42 30 26 29 31 30 27 24 19 16 18 15 14 17 16 15 14 13 12 12 13 13 11 11 10 9 9 10 10 11 13 15 16 14 12 12 15 16 14 14 15 15 14 13 13 11 10 8 7 12 13 11 11 11 11 11 11 12 12 8 8 9 8 9 9 10 11 8 12 12 13 32 41 41
11 7 6 10 14 18 22 26 29 28 29 26 24 34 36 27 29 33 35 35 30 25 21 15 14 13 13 15 15 14 13 13 12 12 13 12 11 10 10 9 8 8 8 9 11 12 11 12 13 13 15 15 14 14 15 16 14 12 13 12 11 9 7 9 13 14 15 15 15 16 16 14 13 11 10 10 8 9 11 10 10 8 11 10 14 33 38 33
13 10 6 7 10 17 19 22 29 30 31 32 31 35 33 27 32 37 38 38 35 28 22 17 13 11 11 12 15 12 11 14 12 11 12 11 10 10 9 9 9 10 7 7 9 9 10 14 14 13 13 13 13 14 14 17 17 14 13 13 11 11 10 10 13 16 18 20 17 17 21 16 11 11 11 10 9 11 12 10 10 8 11 10 11 29 41 39
13 12 10 6 7 14 17 24 38 40 36 37 36 32 29 27 33 40 43 45 39 25 17 16 12 10 11 13 14 12 13 14 11 11 12 11 10 9 10 8 8 9 7 7 8 7 9 13 13 12 13 13 14 13 12 16 18 16 15 13 11 11 13 13 13 16 20 20 16 16 21 19 13 11 11 10 9 11 12 11 11 9 10 12 10 19 34 41
12 12 12 9 6 9 14 30 45 38 28 31 31 28 27 30 35 40 48 55 44 26 16 12 11 12 13 15 14 13 16 14 10 11 12 11 10 10 11 10 8 7 7 9 11 10 9 12 13 13 13 14 14 13 12 13 15 19 19 13 11 12 14 14 13 16 18 16 15 14 16 19 18 14 10 9 10 11 13 13 13 11 10 12 12 13 18 27
13 12 12 12 9 7 9 23 34 28 27 31 27 28 30 31 35 41 56 65 43 20 16 12 12 15 14 14 13 12 13 13 11 12 12 11 11 10 11 10 9 8 7 9 13 14 12 13 15 14 14 14 12 11 11 11 12 16 16 13 12 13 14 13 13 15 16 17 19 15 14 19 20 15 10 9 11 14 16 15 12 10 9 9 11 12 11 14
13 12 12 15 12 8 6 8 12 16 24 28 27 30 31 29 34 43 60 64 34 12 14 14 13 15 13 13 14 11 10 11 12 13 12 12 11 11 11 9 9 9 7 8 11 12 10 11 12 12 13 13 10 9 9 10 12 12 12 13 14 14 13 14 15 16 18 23 24 18 16 20 21 16 12 11 13 15 16 14 12 10 9 9 10 10 11 13
12 11 13 16 13 15 19 17 18 17 18 26 33 34 34 35 41 53 63 51 25 13 14 14 14 14 13 13 14 12 11 11 10 11 12 12 11 11 11 10 10 9 9 9 9 9 8 9 10 10 11 10 9 9 8 10 12 11 13 15 15 14 13 15 17 17 24 28 25 19 16 19 21 17 14 14 14 14 15 15 14 13 11 11 13 13 13 14
10 11 13 17 16 21 34 40 37 30 26 33 36 32 35 39 41 58 62 37 19 16 13 13 14 12 12 14 13 12 12 12 10 10 12 11 11 11 11 12 11 11 12 12 10 8 8 9 10 9 8 7 7 7 8 8 9 11 12 14 17 16 17 20 20 22 29 31 22 16 13 16 21 19 17 17 13 13 16 17 16 15 14 14 15 15 14 14
10 10 11 17 18 15 26 42 46 44 41 36 33 31 36 42 42 50 48 31 25 21 12 12 12 9 12 12 11 11 11 12 11 10 10 10 13 12 11 12 12 14 15 14 13 12 11 10 9 8 7 7 7 7 7 7 7 10 10 14 20 22 25 30 30 29 31 30 21 15 15 17 18 16 14 14 12 12 14 14 14 14 16 17 16 15 15 16
9 10 9 15 20 13 17 35 48 53 48 39 38 36 36 47 48 38 29 27 28 18 9 12 10 9 12 11 11 11 10 12 10 10 10 9 13 13 11 10 10 13 17 16 16 16 16 13 9 9 8 7 8 8 9 8 8 11 11 15 22 26 32 37 33 31 30 26 19 16 19 20 18 17 13 11 12 12 12 13 14 15 17 18 15 14 16 18
9 8 9 11 18 19 20 29 38 44 45 45 45 38 39 50 45 30 22 21 21 14 10 12 9 9 11 11 11 10 10 13 9 9 10 9 13 15 13 11 8 10 14 17 18 17 20 19 13 11 10 8 8 7 8 8 8 11 10 13 20 23 31 35 31 29 28 24 18 18 21 21 24 27 17 11 13 12 11 13 14 17 18 17 14 15 20 24
8 10 13 12 15 21 24 29 32 38 46 48 42 37 43 47 36 26 21 14 13 13 11 10 9 11 11 9 9 8 10 13 10 10 11 10 13 14 13 12 10 9 12 15 16 14 17 17 10 8 8 7 8 7 6 7 9 10 8 11 18 19 22 27 26 24 24 25 23 22 21 18 23 25 15 13 15 11 11 13 14 16 15 15 17 19 24 31
10 21 30 24 14 16 26 34 38 47 53 45 39 38 37 33 26 20 15 9 9 11 12 12 11 11 12 11 10 9 9 11 10 11 11 10 10 10 10 11 10 10 10 12 14 14 15 14 7 7 8 7 9 7 5 8 10 10 10 12 14 12 14 22 24 20 21 28 27 22 20 19 21 20 13 14 15 10 11 12 12 14 14 17 22 25 30 37
8 22 39 40 27 25 37 43 45 54 53 40 40 40 29 22 19 14 9 8 9 10 12 16 14 12 13 13 13 11 9 11 11 11 12 10 9 8 7 8 10 9 8 9 12 13 15 15 9 7 9 7 6 7 6 6 8 9 11 11 9 10 12 17 23 22 24 30 26 20 21 20 19 18 15 14 14 12 12 11 12 15 18 23 28 32 37 42
7 13 27 33 31 36 42 43 44 48 43 36 39 37 26 20 16 11 9 8 8 10 13 15 15 13 12 14 14 12 11 12 12 11 11 10 10 9 7 8 10 9 8 9 11 12 12 16 13 8 8 7 5 8 10 7 6 7 8 7 8 13 16 17 22 25 27 30 26 21 19 15 15 17 16 16 15 14 12 10 14 17 19 26 33 38 42 44
9 18 24 21 26 36 38 39 44 43 36 35 36 31 22 18 14 10 8 8 9 10 11 11 11 12 13 14 14 12 12 13 12 11 11 9 12 13 9 8 11 10 10 9 10 11 11 18 20 11 7 7 6 9 12 10 7 6 6 6 7 11 13 15 18 20 24 29 28 25 20 19 22 21 17 16 16 17 16 13 14 16 19 27 36 41 45 48
30 36 31 23 26 33 34 37 41 38 33 32 29 24 18 14 11 8 7 9 10 10 9 9 9 11 12 12 12 13 13 12 11 12 11 8 13 18 12 9 11 11 11 10 10 11 11 18 24 16 8 9 8 9 10 11 10 8 9 10 11 13 13 14 14 13 16 22 25 25 23 25 29 23 16 17 17 22 23 16 14 18 24 32 40 45 48 50
41 41 31 28 30 35 39 37 33 29 29 27 22 19 17 14 12 10 10 11 11 9 8 8 9 12 13 13 14 14 13 13 12 12 12 9 12 16 12 10 11 10 11 12 11 14 16 18 22 18 13 12 10 8 7 8 10 11 13 13 14 18 20 21 21 18 17 22 26 26 25 29 31 22 18 20 17 19 22 18 18 25 31 37 43 47 49 50
34 31 30 34 34 37 40 32 24 24 25 23 19 16 15 14 13 12 12 11 11 9 7 8 10 12 13 14 14 13 13 14 13 12 13 10 11 14 13 12 11 10 13 12 11 18 22 20 21 20 16 13 10 7 6 7 8 10 12 12 12 15 18 21 24 22 20 22 23 23 26 36 36 23 20 22 17 17 22 21 23 30 35 39 43 45 47 48
39 27 29 35 32 33 36 29 23 24 23 20 17 14 12 13 14 13 12 10 10 9 8 8 9 11 12 12 12 12 13 15 13 12 12 10 12 15 12 12 12 9 11 11 12 19 22 19 21 22 16 11 8 5 4 5 6 10 11 10 11 12 13 16 17 17 19 20 21 23 29 38 36 23 19 19 15 16 21 20 23 32 35 36 39 42 43 43
47 32 30 34 31 30 31 29 25 22 21 19 16 14 13 12 13 14 13 10 9 9 10 10 10 12 11 10 11 12 13 16 14 12 11 11 13 15 12 12 12 8 11 18 21 23 23 20 21 24 23 19 15 10 7 6 7 10 12 12 13 11 12 15 14 16 23 22 22 26 29 32 30 21 18 17 13 14 17 19 24 31 32 33 36 38 38 39
52 36 26 25 28 28 26 24 21 20 21 21 20 18 17 14 13 14 13 12 11 10 13 14 13 13 12 11 13 12 12 15 15 13 11 10 13 14 13 13 12 12 20 26 23 21 23 23 23 27 30 28 24 17 14 13 11 12 13 14 14 13 15 17 16 22 29 26 23 26 28 29 28 21 19 18 16 16 16 16 21 28 29 30 34 36 37 37
49 34 24 21 23 23 20 17 15 17 21 24 25 23 22 22 18 14 13 15 13 11 13 15 13 13 15 15 16 15 13 13 13 13 12 11 12 13 13 12 12 19 28 27 20 19 23 24 23 25 26 24 21 16 13 15 16 16 15 13 13 14 15 17 19 25 27 26 27 26 24 28 27 21 21 21 19 19 18 16 19 25 29 31 34 36 37 37
41 32 30 32 31 24 20 17 13 16 18 21 24 22 23 25 20 15 16 16 13 11 14 14 12 14 17 18 20 21 17 14 14 14 13 11 10 12 14 13 15 23 25 19 16 18 21 24 23 22 22 18 16 14 13 14 15 16 15 14 13 13 15 20 25 25 22 25 29 24 22 28 26 20 21 21 20 20 20 19 19 23 28 32 34 35 35 37
38 36 33 37 39 31 26 25 22 21 21 22 24 23 24 27 24 21 19 18 16 14 16 18 16 14 15 16 19 21 21 20 20 18 15 12 11 14 15 12 16 22 19 14 15 17 22 26 22 20 21 17 14 15 14 14 15 14 14 14 13 15 18 23 24 21 21 27 28 22 24 28 24 19 19 19 19 19 18 18 18 20 25 29 33 35 32 34
46 46 39 42 45 35 28 30 29 25 25 26 27 27 27 29 28 24 20 22 25 20 18 23 21 14 14 13 14 22 32 36 35 32 29 25 21 21 20 17 17 18 17 17 17 18 25 28 24 22 23 19 17 16 14 15 16 15 15 13 13 16 18 19 19 18 20 26 25 22 27 28 22 18 18 18 18 19 18 18 18 19 22 26 36 40 33 29
56 55 49 52 50 34 24 27 28 24 23 25 28 26 25 27 28 25 19 22 29 27 25 29 25 20 19 13 12 26 39 43 43 42 40 36 31 27 26 25 20 17 17 18 19 23 29 29 25 26 29 27 21 17 16 17 17 16 16 14 14 17 17 18 22 22 23 26 24 25 32 31 21 17 18 18 18 18 19 19 18 18 19 23 32 36 31 26
55 59 59 59 50 32 22 22 23 22 24 29 32 28 25 26 25 23 21 19 23 26 26 28 28 27 24 18 21 32 35 33 34 34 32 31 30 27 25 23 20 20 20 19 21 27 30 29 27 30 37 34 23 19 18 16 15 18 20 20 20 21 23 24 23 23 26 28 28 30 34 30 22 19 19 18 19 20 20 18 18 21 21 19 21 25 28 28
45 57 59 58 50 33 22 19 21 29 35 36 33 27 25 23 19 20 25 24 20 20 22 26 29 29 29 32 35 35 31 28 28 26 24 24 23 21 20 19 17 19 22 23 25 27 26 29 30 32 38 36 25 21 21 22 28 30 27 27 26 24 27 29 24 23 25 27 30 31 28 24 24 26 24 22 24 27 27 24 23 27 27 23 22 22 23 27
Wind_Speed
8 6 6 5 5 6 6 7 7 7 7 7 7 7 7 7 6 6 5 4 4 4 4 2 2 2 3 4 5 6 7 9 9 10 14 11 9 14 14 13 13 8 7 7 7 8 12 12 13 12 13 13 13 14 14 15 15 11 6 7 7 7 10 8 11 11 4 3 3 7 6 2 4 6 4 3 7 11 16 8 15 16 15 18 19 23 24 23
7 6 6 5 5 6 6 6 7 7 7 7 6 6 6 6 6 5 4 3 3 3 2 2 2 2 3 4 5 7 8 9 11 13 14 11 12 16 15 16 14 9 9 10 10 11 13 12 12 12 13 14 13 14 13 13 14 10 6 7 8 9 11 12 17 9 4 6 8 9 3 0 3 6 6 4 9 9 13 10 20 26 22 26 24 24 24 24
7 6 6 6 6 6 5 6 6 7 7 7 7 6 6 6 5 5 4 3 2 1 1 1 2 3 3 4 5 7 8 9 12 14 10 9 12 14 13 13 11 10 10 11 11 11 12 12 11 12 14 13 13 14 13 12 11 11 8 7 9 11 13 18 20 9 8 10 10 9 5 3 5 6 4 6 10 10 11 11 15 25 23 25 24 23 24 24
7 6 6 6 6 5 5 6 6 7 7 7 7 6 6 5 5 5 4 3 2 2 1 2 2 3 4 4 5 6 8 9 8 6 5 6 8 9 10 10 9 10 10 12 11 11 12 12 10 12 13 12 13 15 13 11 9 10 10 8 11 14 13 14 14 7 8 10 10 12 8 7 11 5 4 8 9 10 10 14 14 24 29 26 25 23 24 23
6 6 6 6 6 5 5 6 7 7 8 8 8 6 5 5 5 5 5 3 3 3 2 3 3 4 4 4 4 5 6 5 1 3 3 4 6 7 8 8 9 10 11 12 10 12 12 13 11 12 12 10 12 13 12 14 12 9 10 12 14 16 13 11 10 4 4 7 8 10 9 10 11 5 8 11 7 8 4 10 11 22 35 28 26 25 23 22
6 6 6 6 5 5 5 6 7 8 8 9 8 7 5 5 5 5 5 4 3 2 2 3 3 4 4 2 4 4 3 3 2 3 7 6 7 7 7 8 9 12 13 10 11 11 11 12 11 12 11 10 11 12 12 16 15 9 10 13 14 16 15 12 9 5 3 5 7 9 12 11 9 8 12 12 9 9 6 24 15 20 32 25 25 25 23 21
6 6 6 6 5 5 5 6 7 8 9 9 9 8 7 5 5 5 5 5 3 2 2 3 4 5 3 3 5 4 8 9 4 5 8 7 8 6 7 9 10 14 14 10 13 11 10 12 13 13 10 9 11 13 13 16 17 13 9 11 15 16 14 13 11 8 6 7 9 12 14 11 8 10 9 9 11 7 6 17 19 24 25 20 22 24 23 22
6 6 6 6 6 5 5 6 7 8 9 10 10 9 8 7 6 5 6 5 3 3 3 3 4 4 4 3 4 8 12 10 6 8 9 7 6 4 8 10 12 15 13 12 13 10 10 12 13 13 10 10 12 13 14 14 15 12 10 12 15 16 12 11 12 10 10 10 11 14 13 11 12 12 7 7 10 5 11 16 18 18 18 19 20 23 24 25
7 7 6 6 6 6 6 7 7 8 9 10 11 10 8 8 7 6 6 5 3 3 2 3 4 4 5 3 4 9 7 4 7 10 7 5 4 5 9 11 13 14 11 12 13 11 11 11 14 14 11 12 12 11 12 10 7 7 12 15 15 16 13 10 13 13 14 13 11 13 11 13 16 12 9 10 8 7 17 20 18 17 16 16 15 21 22 24
8 8 7 7 7 7 6 7 7 8 9 10 11 10 9 8 8 6 6 4 3 3 2 4 5 4 3 3 6 6 1 0 6 6 3 4 5 8 10 11 11 12 12 11 11 13 12 11 11 12 11 13 12 10 10 9 7 7 11 15 15 15 13 11 14 14 13 12 13 13 11 15 15 8 8 9 7 10 21 21 16 14 13 12 11 17 18 20
8 8 8 8 8 8 7 7 7 8 8 9 10 10 9 8 8 7 5 4 3 3 3 4 4 4 3 4 8 7 2 1 2 1 5 6 8 10 10 11 11 11 12 10 10 12 12 11 9 9 7 6 10 10 11 13 12 10 9 11 13 13 14 15 15 13 10 10 14 13 11 15 11 8 10 9 11 11 19 21 15 12 8 9 11 16 18 18
8 9 9 9 8 8 7 7 7 7 8 9 10 10 8 7 8 7 5 3 3 2 3 4 4 5 4 7 14 9 3 1 4 5 7 8 9 9 8 9 11 12 11 8 9 10 11 9 8 11 8 4 8 7 7 13 13 12 9 9 13 13 14 16 15 14 11 10 13 11 10 12 9 10 12 10 11 11 15 16 15 16 11 11 12 15 18 18
8 8 9 9 9 8 8 7 7 7 8 8 9 9 8 7 7 7 6 4 2 2 3 4 4 5 5 9 11 6 1 2 5 6 8 9 10 9 7 8 10 12 11 9 8 9 10 9 8 13 12 9 10 5 6 8 10 10 10 9 11 10 12 16 16 15 13 12 15 11 7 8 11 13 9 11 10 11 14 12 13 20 17 15 13 13 17 18
7 8 8 9 9 9 8 8 7 7 8 8 9 9 8 7 7 7 5 4 2 2 3 5 5 4 5 8 4 5 5 4 5 7 9 10 11 9 8 8 10 10 10 9 7 6 8 9 10 12 12 13 13 9 7 7 8 8 10 9 7 8 11 13 13 12 12 10 14 10 7 6 10 12 13 10 10 10 11 15 16 19 16 13 13 13 15 16
7 7 8 8 9 10 9 9 9 8 8 9 9 9 9 8 8 7 5 4 3 3 4 4 5 4 7 10 6 6 6 6 7 8 10 11 11 9 9 9 9 8 8 8 6 5 7 8 10 11 11 13 12 10 8 8 7 7 8 7 8 10 7 10 13 11 9 8 13 10 7 7 11 12 17 9 10 10 9 17 16 14 16 13 12 12 11 13
7 7 7 8 8 9 10 10 10 10 9 8 9 9 9 9 9 8 6 5 3 3 5 3 5 7 8 6 5 5 6 9 9 9 11 11 10 9 9 9 9 8 8 8 6 5 8 9 11 12 12 11 9 8 7 6 7 7 7 6 9 10 5 9 11 12 10 9 12 11 8 8 6 10 14 8 9 11 8 20 19 13 16 14 12 13 11 12
7 7 7 7 8 8 9 9 10 10 9 8 9 9 10 11 10 9 7 6 4 3 6 4 3 8 10 5 4 7 9 10 9 10 11 11 10 9 9 9 9 9 8 8 7 7 9 10 10 10 10 8 6 7 6 7 7 6 7 7 9 11 6 7 10 11 10 9 9 11 12 8 5 11 9 8 8 12 9 19 25 21 18 15 12 12 12 12
7 7 7 7 7 7 7 8 8 8 7 7 8 10 12 12 11 9 7 7 4 1 5 7 3 6 11 13 13 11 11 10 9 11 10 10 9 7 9 11 8 9 9 8 9 10 9 10 9 7 7 7 7 8 7 6 5 4 5 6 7 9 7 4 6 8 8 7 7 10 11 9 7 11 9 8 8 12 11 16 24 26 24 20 16 13 13 13
7 7 7 6 6 7 6 6 6 5 5 6 9 11 13 13 11 9 7 7 5 5 3 8 14 6 3 11 13 9 10 10 10 10 11 10 8 8 11 11 8 10 10 7 9 11 9 8 7 7 6 7 8 7 4 5 9 11 10 7 6 6 7 3 4 7 6 6 8 9 10 12 11 10 11 11 10 9 8 10 17 26 29 26 23 20 18 18
8 7 6 6 6 6 5 4 4 4 4 6 9 11 11 10 7 5 7 11 14 14 11 8 22 18 6 8 10 7 9 9 9 11 11 11 9 9 12 11 10 10 9 7 8 9 9 6 6 8 5 3 4 4 5 7 10 11 11 9 5 6 7 4 7 10 4 4 5 7 11 12 8 8 11 12 11 7 7 7 10 23 30 30 29 27 25 24
9 7 6 6 5 4 3 2 3 3 5 6 9 10 9 7 4 2 3 11 18 20 21 15 17 21 12 4 9 8 8 9 11 12 11 12 11 9 11 11 10 8 8 12 7 6 5 6 8 8 1 2 6 8 7 7 9 9 9 9 5 7 4 6 5 6 5 2 5 6 11 9 8 12 10 5 6 8 6 8 7 14 21 21 23 30 30 27
11 7 6 6 5 4 2 3 3 4 5 7 9 10 10 9 7 7 8 11 16 18 23 19 15 17 13 6 6 7 10 11 11 13 13 13 13 11 11 11 10 8 8 10 6 3 5 8 12 9 3 2 3 6 7 8 9 8 7 7 5 8 3 11 8 2 5 2 5 6 9 9 9 11 6 4 7 5 6 9 12 11 13 13 12 27 30 27
13 8 7 6 5 4 4 4 5 6 6 7 10 12 11 10 8 10 10 11 14 15 21 20 17 16 14 13 9 9 13 12 11 15 16 15 15 14 11 9 9 9 9 10 7 6 6 5 7 4 3 2 5 4 6 6 6 7 6 7 6 8 8 3 6 1 2 1 4 7 8 9 9 6 4 9 10 6 6 12 16 13 12 12 10 26 29 24
14 11 8 7 6 5 6 6 6 8 7 7 10 10 10 10 8 10 10 9 11 12 17 19 18 17 17 15 12 14 16 14 12 16 18 15 16 14 11 11 10 8 10 10 10 10 10 1 7 6 4 2 4 4 5 5 5 7 8 9 9 9 10 5 4 5 4 4 4 9 8 6 8 5 6 10 7 8 9 14 15 13 12 12 10 27 28 23
15 13 10 7 7 7 7 7 7 7 7 9 10 7 7 8 7 9 9 7 8 9 14 16 16 17 18 14 11 14 15 14 16 17 22 17 16 14 10 11 10 8 11 11 11 10 8 2 5 4 2 3 4 5 7 6 5 8 9 10 12 13 12 8 0 3 2 5 6 8 7 5 8 8 9 10 7 9 11 11 10 11 12 12 10 22 29 26
15 14 11 8 8 7 7 7 5 6 9 12 9 4 5 7 7 9 7 5 5 5 8 13 14 13 15 15 12 12 11 12 13 14 22 15 16 15 9 8 8 9 10 8 7 7 3 1 1 3 3 4 7 7 8 8 7 6 4 6 11 10 10 10 8 4 4 5 4 7 6 5 5 8 9 10 10 10 9 8 9 10 10 10 10 15 24 26
15 14 12 10 8 8 9 8 4 6 8 6 3 4 6 7 8 9 5 5 5 6 8 10 10 9 14 15 13 11 6 7 10 15 16 12 15 13 10 8 7 7 8 6 2 3 3 5 2 4 5 5 8 7 8 10 8 4 2 7 10 8 9 10 9 7 6 6 3 7 8 6 5 8 7 5 7 10 10 10 9 11 13 13 11 12 14 19
15 14 13 10 9 9 10 10 10 12 9 8 6 6 7 7 8 6 3 4 2 6 8 9 7 6 13 14 15 17 7 5 10 12 11 11 13 12 10 11 11 8 8 8 3 1 3 4 4 5 8 6 7 9 10 12 9 5 2 4 8 9 10 9 8 7 6 7 6 7 8 7 5 7 6 4 6 8 10 9 8 9 13 13 13 15 14 14
16 15 13 11 9 9 10 11 12 12 8 7 9 7 7 9 7 3 3 3 2 5 5 9 8 7 13 12 15 21 12 6 9 9 12 13 14 13 11 10 12 13 7 6 5 3 4 6 4 5 7 6 10 10 7 8 7 5 4 5 8 11 10 8 6 6 6 6 7 7 7 6 5 5 6 6 7 7 7 8 8 8 9 8 9 9 5 5
16 15 13 11 9 6 7 9 8 7 5 6 9 8 8 8 4 4 5 2 3 5 6 8 9 11 13 10 12 17 13 9 9 8 12 12 14 16 15 12 10 11 7 4 8 9 5 3 3 6 8 8 11 8 1 4 6 5 5 6 8 10 8 6 5 5 5 6 8 11 11 9 6 5 4 2 6 7 5 4 6 6 7 5 4 2 1 2
16 15 13 12 9 5 8 9 4 6 4 7 10 8 7 5 4 4 5 3 4 6 8 6 8 13 14 12 11 13 12 12 8 8 9 9 11 13 11 10 8 6 7 5 7 11 7 6 6 7 10 10 11 9 5 6 8 6 5 6 7 6 5 5 4 5 6 6 7 11 11 10 7 4 1 3 5 6 3 3 6 5 4 6 7 3 2 2
16 15 13 11 10 9 13 9 3 5 7 9 11 8 6 5 6 5 6 6 5 4 7 7 9 11 14 15 11 11 11 11 10 10 9 8 8 8 8 7 5 4 6 6 5 7 8 8 8 9 10 9 9 7 7 7 7 6 6 6 6 4 4 5 4 5 6 6 7 7 6 6 6 4 4 5 5 5 2 4 10 9 7 9 7 3 2 2
15 16 13 11 11 11 12 9 5 8 10 9 9 7 6 5 6 7 8 6 3 4 5 7 9 10 11 13 10 11 11 9 11 11 10 9 7 8 10 10 9 7 5 3 4 5 5 8 10 8 9 10 7 6 6 6 5 6 6 4 5 4 5 5 5 6 5 6 7 3 4 4 4 3 2 5 5 7 5 6 8 9 10 8 4 4 4 3
15 16 14 12 13 12 11 9 8 8 7 7 7 6 7 7 7 9 9 7 6 5 6 7 9 10 11 12 9 10 10 8 11 10 9 10 8 7 9 10 11 8 4 3 4 4 6 5 7 8 5 9 7 7 7 7 4 6 6 4 4 4 5 5 4 5 4 4 5 1 0 3 2 2 1 6 6 7 6 6 7 7 8 7 4 4 6 7
14 14 13 13 14 13 12 10 8 7 6 7 7 6 7 7 7 8 8 8 8 7 7 8 9 8 10 10 9 10 9 7 9 10 8 8 8 7 7 8 9 7 5 6 3 3 8 6 6 8 3 5 5 8 6 8 6 3 4 4 4 4 5 5 5 6 4 4 5 3 3 2 1 3 3 6 5 5 7 9 9 7 8 9 6 6 8 9
11 11 13 14 14 13 12 11 9 7 7 7 6 6 8 7 7 8 6 7 6 6 8 9 8 8 7 6 7 9 10 8 7 8 7 8 10 10 10 7 6 6 6 5 2 2 6 5 2 5 4 4 10 8 3 4 4 2 3 4 2 3 6 5 5 5 4 5 5 3 5 2 2 4 5 7 7 7 8 9 10 11 10 9 8 8 9 10
10 10 12 14 13 12 12 12 10 9 9 8 7 7 7 8 10 10 9 8 6 5 8 7 5 7 7 5 6 8 9 7 8 7 6 8 9 8 9 8 6 5 5 4 3 2 3 4 2 3 6 10 9 5 6 7 7 5 4 2 1 3 5 4 4 5 5 6 4 4 7 6 3 4 6 8 8 8 9 9 10 11 10 10 9 10 11 12
11 11 14 16 15 13 13 12 11 12 10 8 8 9 9 10 12 14 13 9 5 6 8 7 4 5 6 6 6 8 8 7 8 8 7 7 5 2 4 6 7 5 5 4 3 1 2 5 5 7 11 8 7 4 6 9 10 9 7 5 3 3 4 3 3 5 5 5 5 5 8 7 5 2 5 9 10 9 9 8 9 10 11 11 10 10 11 12
11 10 14 16 14 12 12 11 11 12 10 7 7 8 8 11 15 18 14 8 6 7 8 8 7 5 6 8 6 8 10 8 7 7 7 6 3 1 3 2 4 5 4 5 5 3 3 4 4 7 11 8 5 5 4 6 9 12 8 6 5 4 4 3 4 4 4 5 5 5 7 4 1 2 2 7 6 4 6 7 9 9 11 14 11 10 11 12
9 10 10 9 11 13 12 10 11 11 8 8 8 8 9 11 15 17 12 5 5 8 8 8 9 7 7 9 9 7 8 8 7 7 6 3 3 2 5 5 4 5 3 4 6 4 3 3 3 6 9 9 4 3 4 6 5 5 6 5 5 3 3 4 5 5 5 6 5 5 6 2 2 2 1 4 4 2 4 6 7 9 13 15 12 11 11 12
9 10 6 9 12 13 12 10 9 9 7 8 9 10 11 9 11 13 9 4 7 10 10 9 9 8 6 7 8 7 7 7 7 6 5 4 4 5 7 5 6 6 3 3 5 2 2 3 4 6 6 8 7 5 6 6 6 5 4 4 4 2 3 5 5 5 4 5 5 6 5 1 2 4 4 2 3 3 3 7 4 12 15 14 12 12 12 13
8 8 5 11 12 12 11 8 8 9 8 8 10 12 11 6 8 12 10 7 7 9 11 10 8 7 7 6 6 7 7 6 7 6 6 6 1 2 3 5 3 1 1 4 3 4 3 2 5 6 6 8 10 11 11 8 6 8 7 6 6 5 4 5 5 4 4 5 5 6 5 1 1 3 3 3 1 5 7 10 7 15 14 13 13 12 12 14
9 7 3 8 10 11 10 7 7 8 7 10 13 16 14 8 7 12 12 10 7 6 8 8 6 6 7 7 6 7 6 6 8 7 8 6 4 10 7 5 2 1 1 5 4 6 3 3 5 7 7 8 11 14 14 10 7 7 7 7 7 7 7 7 6 5 5 6 6 6 5 0 1 3 2 4 4 4 8 7 11 14 13 13 13 13 13 14
12 11 6 7 8 11 10 7 7 7 8 12 13 14 15 12 10 10 11 10 8 7 6 6 6 6 6 7 7 7 6 5 7 8 10 7 4 8 7 6 2 2 1 3 3 4 2 3 4 6 6 7 8 9 9 9 7 4 4 5 7 9 10 9 6 5 5 6 7 7 5 0 1 1 3 3 5 2 3 5 10 12 13 13 13 12 13 13
12 11 9 10 11 11 11 9 8 7 7 10 11 11 13 11 10 11 10 9 9 7 5 5 6 7 6 7 7 6 6 6 5 6 8 6 3 5 4 4 2 2 7 9 6 3 3 3 3 5 5 5 6 4 2 3 3 3 4 7 8 9 11 8 4 4 6 6 6 7 5 0 4 3 0 2 3 2 2 4 9 11 11 11 12 12 12 12
8 6 6 8 8 9 13 13 13 10 7 7 7 8 10 9 10 10 8 9 11 8 6 7 7 7 7 7 8 7 7 8 7 6 7 7 4 5 5 4 3 8 11 9 5 3 4 4 6 8 8 8 9 9 9 8 7 7 8 10 9 9 10 7 3 5 5 5 6 7 6 5 2 1 1 1 2 4 4 4 6 9 10 10 11 11 10 11
8 4 3 3 3 6 9 11 10 8 7 7 5 6 9 9 10 6 3 5 10 7 5 8 9 7 6 7 7 7 8 9 9 9 8 9 5 4 7 3 3 9 8 3 2 1 3 5 8 10 12 13 14 15 15 13 12 12 12 13 12 11 11 7 5 7 7 6 7 6 7 9 8 8 6 3 3 5 4 4 3 4 8 10 10 9 10 11
6 6 7 9 5 6 4 4 6 7 7 6 5 6 7 8 9 6 3 3 9 6 4 6 9 9 9 8 7 6 8 9 9 9 8 8 5 3 6 4 3 8 4 4 4 4 4 6 8 10 13 14 15 15 15 14 13 14 15 16 14 12 12 11 10 10 10 9 9 8 9 11 11 11 10 8 7 7 7 7 6 3 5 10 10 8 10 11
12 9 11 14 9 6 5 9 9 9 7 4 3 5 6 6 8 7 4 2 7 7 5 5 7 9 10 10 8 4 4 5 6 6 7 6 5 4 3 3 3 6 3 4 5 4 3 5 7 9 12 14 14 15 14 14 14 14 16 17 14 13 14 15 13 13 13 13 14 14 13 13 12 11 11 12 13 13 12 10 6 8 10 9 9 11 13 11
14 11 12 16 12 7 8 8 7 8 5 1 2 3 5 5 6 6 4 1 4 7 7 7 9 10 11 11 7 3 7 7 6 6 8 7 4 4 5 3 3 3 4 5 4 3 3 3 5 6 9 11 12 13 13 14 14 15 16 16 15 15 15 15 13 11 11 11 14 14 12 10 9 10 12 14 15 14 13 13 11 11 13 12 11 14 15 13
15 10 11 13 9 7 8 7 5 6 3 2 3 3 3 5 5 5 3 2 4 6 7 9 11 11 12 10 4 8 9 7 7 7 8 8 5 4 4 4 5 6 5 6 4 3 3 3 5 5 7 8 10 12 14 14 15 16 16 15 16 15 12 12 12 11 9 10 11 11 9 7 6 9 12 13 15 14 13 14 11 10 14 16 18 18 17 16
19 12 12 12 8 7 8 5 3 3 4 5 6 5 5 5 5 6 4 4 5 4 4 10 12 8 7 8 9 9 8 8 8 9 9 9 9 8 7 8 9 7 5 5 4 3 4 4 4 5 6 7 10 12 13 12 12 12 9 8 10 10 9 11 12 11 10 9 7 8 8 5 7 10 11 9 10 13 14 13 11 13 17 15 11 16 19 18
Wind_Direction
336 338 332 334 333 326 325 322 323 324 322 324 323 325 329 329 328 325 323 324 321 308 290 279 268 268 273 272 275 272 273 269 261 254 254 245 228 244 247 248 255 249 232 208 176 204 217 221 229 228 231 233 233 240 242 235 233 238 236 240 251 250 252 256 252 259 292 264 85 66 63 29 304 307 304 286 258 258 272 264 106 93 89 111 135 147 156 155
352 354 349 345 338 334 332 330 333 332 330 328 323 325 328 330 330 327 329 326 324 324 303 296 279 268 273 272 277 278 276 275 271 259 248 240 240 244 241 246 249 233 216 194 191 216 216 216 223 222 227 233 230 228 236 229 219 230 244 237 243 250 257 261 256 266 359 317 342 14 27 34 293 301 308 294 267 251 251 233 111 103 100 109 127 138 144 151
359 358 356 349 341 340 342 347 350 347 346 336 327 323 324 330 331 333 332 323 318 302 281 286 280 280 274 275 282 286 289 292 283 269 255 247 247 246 243 243 232 218 212 195 202 218 221 223 220 219 227 236 234 226 226 217 209 221 238 247 244 247 256 266 271 300 347 316 319 314 311 329 284 281 295 297 280 266 247 223 132 117 118 119 130 144 150 154
358 359 357 353 347 348 356 5 6 4 2 353 341 324 318 325 328 337 332 327 314 279 277 265 273 276 271 286 292 302 311 303 283 250 235 249 255 251 243 233 212 206 199 190 214 232 232 237 234 228 230 238 236 232 229 215 212 217 225 243 252 256 262 277 293 325 316 302 305 300 312 299 279 285 282 278 274 266 247 235 202 141 133 134 135 148 156 156
355 356 357 358 353 355 8 13 15 13 9 5 358 340 321 317 324 338 332 325 305 284 286 263 263 263 271 297 292 310 323 314 92 164 239 277 274 263 241 222 200 191 182 185 226 246 236 239 245 236 231 243 240 233 228 221 225 229 234 242 257 272 284 297 308 331 305 295 300 296 289 277 282 295 269 263 257 261 312 335 272 160 142 147 149 151 154 158
344 350 352 358 357 1 11 15 17 14 12 8 4 357 341 324 321 332 331 322 302 290 271 256 255 257 271 282 274 297 293 316 65 205 273 292 280 269 233 208 187 176 174 194 238 242 232 234 237 233 228 239 246 242 228 222 229 239 248 249 257 270 276 282 293 320 319 281 277 277 267 268 282 277 266 260 257 256 28 26 22 132 138 151 159 151 150 160
326 337 342 350 356 3 5 6 11 10 13 9 4 2 355 344 329 329 331 319 304 292 257 251 251 251 259 255 280 289 258 278 298 251 283 285 271 268 219 193 176 174 177 212 240 227 220 226 224 228 230 232 243 247 237 228 232 235 247 257 257 259 263 267 275 286 273 256 260 264 262 263 269 269 265 250 249 242 96 64 73 108 123 139 148 148 153 165
308 317 326 333 340 349 350 350 358 4 8 6 4 360 355 352 339 332 328 319 307 287 257 252 247 244 256 259 300 286 257 252 250 269 293 274 259 240 194 177 171 175 183 221 235 221 219 225 227 228 229 233 238 243 242 237 235 233 243 261 266 265 266 266 268 271 261 255 255 254 255 258 257 261 269 253 244 204 120 109 108 117 124 129 143 155 163 169
297 300 307 316 323 330 335 338 346 356 359 2 3 358 355 353 343 337 326 316 298 274 254 249 241 237 260 295 318 290 264 228 256 278 282 247 228 190 175 167 167 176 198 230 231 224 223 224 229 229 237 251 258 261 250 239 232 236 245 250 258 259 255 256 257 253 247 245 247 249 245 247 249 251 259 248 232 151 119 117 122 128 132 130 149 165 167 171
292 292 293 300 310 315 321 328 337 347 351 356 1 359 358 356 350 344 331 320 289 266 255 243 238 240 269 322 305 287 324 179 288 293 234 201 172 164 163 169 175 191 220 233 227 228 231 236 240 244 259 266 271 277 258 243 237 249 261 254 255 261 260 258 254 247 241 235 238 243 239 243 237 225 248 225 182 135 117 114 120 124 133 137 152 171 172 173
287 286 287 291 296 303 308 316 328 338 344 351 358 1 1 1 1 352 343 334 302 264 246 237 240 256 274 290 270 271 25 113 246 202 181 167 156 156 161 185 196 210 227 228 227 235 235 249 273 263 261 272 268 262 248 246 250 260 275 269 261 266 264 257 256 250 240 238 238 237 242 247 222 204 239 192 160 167 132 121 131 132 150 155 154 175 172 172
284 279 280 284 287 293 296 304 318 329 338 345 353 0 1 1 2 356 352 340 322 263 239 233 242 271 298 276 257 257 323 233 196 181 178 167 167 172 179 205 208 213 227 226 227 238 241 260 286 257 250 297 271 262 248 237 246 262 264 268 261 256 251 242 244 240 230 237 229 223 244 245 216 223 230 166 159 187 148 135 147 147 172 177 160 175 172 177
287 278 275 277 281 286 287 293 303 319 331 336 345 354 354 350 352 355 358 351 333 265 240 223 249 287 302 282 258 232 242 227 195 187 187 185 187 197 211 219 213 222 242 248 238 233 238 256 271 259 266 279 263 298 335 245 241 260 249 254 258 254 245 225 222 226 228 233 209 202 240 227 216 221 191 146 173 193 160 158 162 150 167 177 160 173 175 181
291 283 278 273 273 278 281 286 292 307 321 326 334 342 344 342 338 342 351 357 341 273 241 230 268 290 274 276 255 210 225 207 195 197 190 194 199 208 219 219 218 232 245 257 269 238 227 250 260 264 267 265 268 299 311 249 240 253 244 244 242 257 251 208 194 209 223 210 177 192 247 228 222 194 154 159 188 200 174 165 170 152 156 172 154 160 174 181
293 287 283 277 272 273 274 280 286 296 309 317 323 330 336 334 328 327 318 333 339 268 238 238 285 296 268 266 240 229 231 194 197 200 187 194 202 207 209 209 217 228 229 241 273 250 230 247 249 253 255 250 260 278 266 234 228 233 241 236 227 249 243 168 168 197 217 172 163 205 251 246 241 165 141 172 184 205 189 151 162 148 140 163 155 149 161 172
295 291 288 283 278 274 272 276 280 287 297 306 312 318 323 318 316 312 293 297 315 266 231 233 331 316 291 272 212 208 210 199 203 194 190 198 196 193 191 195 204 210 216 228 252 250 231 238 243 251 262 253 237 244 252 245 225 213 234 242 237 243 198 150 170 193 211 189 176 209 247 251 238 129 135 179 186 213 194 136 150 152 141 153 147 145 148 160
299 296 294 288 283 279 276 277 278 284 288 292 301 305 309 306 303 303 280 264 289 265 220 206 337 293 265 256 224 212 205 203 195 184 193 207 206 188 175 190 201 200 210 221 231 236 226 230 242 247 254 255 243 244 244 246 234 206 219 234 249 253 215 158 167 183 210 218 187 197 237 250 127 115 152 185 197 223 200 143 151 155 154 150 132 147 160 163
306 299 299 294 287 284 281 281 283 284 280 281 293 296 298 298 294 292 257 241 278 249 234 224 213 278 252 235 235 218 199 192 183 187 194 205 220 202 185 200 197 194 211 218 218 222 221 222 235 244 236 232 235 242 240 257 293 312 268 238 240 258 247 204 167 172 193 211 210 204 230 245 167 148 168 186 222 238 215 167 156 148 152 158 154 172 179 171
311 301 301 298 290 289 286 289 288 278 273 276 291 296 296 291 280 272 238 229 226 189 236 204 192 235 279 206 217 199 179 181 179 193 196 196 218 209 200 210 206 209 218 212 202 209 217 219 232 243 233 233 230 230 260 332 342 337 312 277 244 250 250 244 119 137 177 201 214 219 223 230 210 173 167 178 201 237 241 194 156 141 148 165 178 186 184 178
318 303 301 299 292 293 292 291 277 264 276 282 297 300 295 290 265 230 202 221 234 237 265 227 198 223 254 173 179 154 154 179 190 199 199 196 208 209 208 218 223 220 228 234 201 195 223 235 239 241 234 285 315 340 352 347 336 326 312 297 267 247 235 200 141 142 178 246 217 235 245 235 226 207 192 181 180 198 254 251 163 148 157 171 178 180 181 179
328 307 300 298 291 294 288 268 255 270 288 288 296 288 289 328 351 338 255 241 247 245 255 256 216 227 254 188 160 165 177 190 201 207 200 195 205 210 203 212 227 216 222 243 223 164 220 252 250 248 224 36 3 3 352 338 325 315 302 301 297 267 245 103 109 140 130 288 263 263 267 248 225 231 224 206 201 182 200 257 235 180 180 189 182 171 173 172
338 311 298 295 288 287 249 236 258 277 289 285 286 276 287 340 355 329 319 278 265 245 237 246 237 234 251 239 188 196 204 194 198 206 197 193 206 211 191 194 225 222 210 232 238 179 212 245 250 241 115 78 1 355 333 326 312 301 287 283 288 277 261 101 106 149 124 181 257 257 264 263 243 237 240 257 251 206 182 235 256 231 211 232 202 163 160 161
347 323 301 290 280 267 237 249 267 274 289 290 287 281 292 328 333 321 317 286 277 253 229 228 234 237 233 228 217 215 222 212 199 197 191 194 209 218 211 208 224 230 220 211 217 242 236 225 236 222 86 344 319 332 316 316 290 277 278 269 267 264 261 152 132 117 41 38 290 283 278 294 290 262 257 252 233 206 207 235 253 246 221 244 206 155 157 167
352 336 308 284 274 264 249 261 269 277 288 289 287 279 289 316 324 328 319 283 277 262 236 222 223 229 222 219 213 216 228 225 210 189 180 195 213 215 224 237 238 240 240 220 205 237 261 226 109 101 80 293 298 305 278 278 269 254 246 255 267 266 271 286 100 87 347 313 283 283 281 282 277 243 238 253 213 173 215 234 244 241 224 241 200 155 162 176
351 342 319 288 276 267 258 268 287 307 293 277 292 290 292 314 320 330 324 282 268 251 233 217 217 225 216 205 202 215 223 234 237 197 173 191 215 211 215 232 244 245 240 236 221 227 259 326 97 129 188 218 245 265 247 240 261 255 237 240 258 276 293 301 299 125 278 266 220 232 256 251 243 229 226 239 209 183 221 234 233 235 222 229 206 158 160 169
346 343 330 301 280 266 262 272 296 312 276 263 281 296 299 311 315 322 315 275 268 226 199 191 197 208 201 188 192 216 224 238 242 180 164 192 218 224 237 220 226 252 256 263 241 225 214 159 276 282 276 259 252 257 252 242 252 264 287 277 254 262 286 285 279 262 249 268 208 188 238 264 243 250 247 234 212 192 214 233 227 236 225 221 223 176 162 164
338 339 331 310 285 262 256 260 251 266 281 290 294 297 319 314 306 314 293 271 264 207 178 169 174 187 194 188 187 208 226 216 195 153 157 202 214 226 257 236 222 241 254 276 259 256 250 164 143 296 274 260 257 255 241 232 241 254 346 309 275 259 263 260 263 261 254 280 252 186 234 267 256 263 273 254 213 185 200 225 219 222 217 207 213 203 188 178
329 332 327 313 287 265 255 255 252 253 279 345 337 302 320 307 297 308 276 282 239 182 172 169 170 193 201 190 190 213 219 162 182 162 167 209 211 216 239 244 263 269 240 239 225 300 279 195 158 244 254 252 253 254 245 234 232 227 231 299 285 273 267 260 254 253 258 274 260 224 237 253 251 260 255 223 215 201 200 212 214 225 218 197 199 209 205 193
320 323 324 311 285 275 265 259 266 259 259 324 326 308 306 298 296 293 247 268 206 176 161 169 174 197 206 187 194 222 225 179 204 185 176 201 212 225 249 259 279 287 266 224 226 242 254 243 237 242 243 245 247 245 245 250 252 252 280 310 288 271 270 268 264 265 265 262 263 261 255 254 256 261 243 200 200 219 216 202 203 225 224 193 201 213 181 167
312 316 319 306 282 283 280 266 282 293 276 301 308 302 298 290 281 253 235 232 221 198 153 156 178 192 204 197 196 219 228 217 214 179 178 199 208 226 259 276 277 285 282 226 242 255 229 194 278 275 256 257 263 263 231 250 266 264 262 273 264 255 256 261 263 271 268 258 258 256 251 252 256 256 265 224 181 200 229 207 172 196 217 177 150 172 152 219
306 307 309 299 276 251 256 262 318 349 305 280 284 287 286 264 242 248 236 256 266 201 161 171 198 191 196 211 208 203 215 226 205 168 187 205 205 215 239 254 253 267 270 245 240 254 241 187 195 233 247 264 276 280 274 246 251 259 252 262 267 251 244 256 249 246 252 254 256 256 250 243 248 259 308 72 132 162 219 209 159 168 186 116 105 134 197 231
299 297 299 294 272 242 235 242 333 333 271 270 281 277 265 247 237 236 240 271 281 195 190 210 210 195 195 212 218 197 205 224 209 198 210 207 200 209 218 225 219 225 252 247 227 244 258 254 234 207 204 233 264 268 259 241 230 247 249 248 263 258 246 251 245 242 246 251 259 281 291 252 240 243 184 143 156 174 172 159 167 170 134 103 107 132 102 72
293 290 289 280 263 247 234 236 278 285 273 284 289 267 249 245 243 242 246 256 230 192 232 235 212 202 203 212 215 200 204 222 216 210 211 208 203 206 220 226 212 212 241 267 260 244 244 263 267 244 187 189 230 256 250 234 203 224 243 239 246 248 247 247 248 253 249 254 259 298 340 273 248 270 197 143 150 160 128 104 140 144 119 115 141 145 122 100
288 286 284 276 261 246 230 233 252 267 283 292 276 250 240 242 251 261 260 250 236 234 258 252 221 206 212 222 212 195 208 226 220 218 208 206 217 212 218 233 224 221 237 238 249 252 245 246 243 244 185 155 203 248 264 281 260 227 232 232 234 242 257 261 261 266 273 288 281 229 261 263 240 276 87 103 110 133 143 133 125 121 126 147 167 126 102 84
286 288 282 272 260 247 232 232 246 260 278 276 261 242 236 241 248 253 257 252 243 244 259 260 243 224 220 227 219 201 216 227 209 218 225 210 223 223 209 231 236 232 245 238 222 226 248 258 222 220 167 112 234 254 262 283 288 263 241 230 218 219 242 254 263 277 300 305 287 239 242 285 183 218 157 121 140 161 158 146 145 161 160 151 142 114 96 87
282 289 285 272 260 251 238 233 240 248 259 259 252 244 236 243 250 247 267 286 270 256 256 251 242 243 236 226 236 215 204 216 210 213 234 224 224 225 206 206 215 216 237 252 268 244 251 278 228 190 177 206 248 267 278 272 291 317 272 254 259 244 243 252 261 270 272 260 262 244 245 242 148 210 176 164 193 177 153 153 163 170 151 132 123 113 101 91
268 267 273 267 256 245 230 225 224 225 243 252 248 252 250 250 254 256 271 290 295 286 271 258 231 243 243 217 239 231 192 200 223 222 238 230 225 228 208 180 163 206 262 291 285 274 261 283 276 221 236 224 221 263 290 276 284 291 266 261 285 254 251 259 264 265 260 254 253 242 246 239 225 221 174 182 200 171 167 178 164 151 137 125 112 105 103 97
274 261 262 261 250 227 209 208 211 219 236 250 248 253 261 263 263 269 278 284 288 273 261 260 231 228 253 237 226 232 213 206 221 228 236 223 215 266 230 175 157 205 279 304 271 244 238 272 271 261 269 243 178 192 266 261 253 252 269 296 287 257 250 237 245 260 262 267 265 257 262 260 258 259 167 185 197 183 192 188 159 159 152 130 110 105 106 104
284 267 265 259 234 200 193 200 212 224 235 244 247 247 253 259 259 263 275 295 299 276 261 265 253 221 244 256 241 231 228 224 222 229 235 218 185 351 281 233 164 191 248 263 264 276 254 275 278 263 280 279 188 185 255 259 233 227 241 269 271 277 278 250 249 261 259 267 273 270 274 277 311 341 192 190 191 199 223 197 170 171 147 126 122 122 112 107
286 269 265 240 194 182 192 206 216 226 234 238 246 252 254 259 260 260 264 273 281 274 266 270 270 250 233 243 251 251 246 242 233 235 242 215 143 171 235 246 224 194 187 244 272 293 277 277 277 270 288 291 252 214 264 292 285 243 229 239 246 263 278 265 256 258 263 269 276 280 278 299 48 0 122 150 161 214 255 223 175 145 124 120 127 127 116 110
282 271 245 180 173 184 195 207 221 229 236 238 242 252 260 272 282 278 271 251 261 273 275 276 283 291 277 250 248 252 257 259 250 253 263 232 200 213 210 200 224 222 172 217 255 292 301 275 271 270 276 274 266 257 261 279 300 303 289 275 283 292 280 273 262 263 282 280 277 282 279 13 38 348 28 93 177 155 261 257 159 118 116 118 123 123 119 114
267 259 203 176 185 191 194 212 229 226 234 244 244 247 254 280 290 278 268 243 240 258 267 268 271 280 279 265 257 253 252 257 253 252 259 252 210 89 138 141 174 245 7 281 290 45 36 291 277 272 266 274 282 283 281 277 273 284 286 278 284 288 276 273 270 280 295 284 284 290 287 13 3 326 1 318 265 142 211 234 140 113 120 125 124 125 121 113
256 254 199 189 201 197 202 237 240 227 239 250 252 253 255 262 268 266 265 257 245 240 250 262 269 269 266 265 265 259 251 255 260 259 261 258 94 90 101 108 111 104 13 284 311 39 27 268 262 270 275 282 279 274 275 267 238 250 268 272 278 277 271 274 283 292 288 282 290 289 278 275 320 317 4 319 312 146 178 174 119 117 128 129 127 127 124 119
287 285 252 203 198 201 214 240 239 235 244 246 252 260 261 259 258 262 265 263 258 250 250 269 280 275 274 275 272 267 262 253 251 256 262 258 108 101 109 100 100 268 42 30 22 32 325 247 239 262 274 276 263 249 252 250 233 233 270 287 289 285 277 269 277 293 284 279 284 278 276 213 117 19 25 322 295 223 151 134 137 142 137 135 136 130 127 126
303 291 252 207 185 202 227 244 250 256 265 264 266 266 263 256 252 262 277 286 284 282 287 289 284 287 292 284 274 265 268 270 257 254 263 256 126 119 142 120 107 4 47 50 42 8 294 276 271 267 264 269 267 259 282 311 305 293 287 283 287 303 301 287 275 280 273 280 280 271 285 279 154 159 281 292 293 278 244 199 167 149 140 144 141 136 137 135
291 292 263 223 195 213 236 245 254 262 272 280 278 270 268 261 250 252 267 284 278 275 289 287 280 291 293 285 287 280 271 275 270 259 260 255 220 157 155 161 125 82 61 40 19 339 290 280 276 270 269 274 281 294 316 326 313 292 285 278 272 286 299 296 279 268 272 297 289 276 296 306 262 280 343 47 331 303 283 241 180 154 156 158 141 140 147 140
279 303 345 322 283 262 246 239 251 264 267 269 266 263 265 263 258 240 198 268 276 268 281 285 277 278 276 273 285 288 281 280 274 265 257 259 264 123 126 167 140 103 82 12 309 263 274 262 258 262 266 270 278 288 298 300 293 287 284 280 275 280 291 292 273 273 280 282 268 276 309 312 313 324 336 13 339 294 296 289 243 151 158 166 159 165 166 155
337 329 13 20 333 273 279 309 310 310 304 295 287 284 278 269 270 256 194 286 299 282 264 278 275 270 269 266 262 266 275 276 274 279 274 264 269 125 142 184 134 112 115 267 234 205 250 259 256 262 264 266 271 276 280 282 282 282 280 282 283 284 284 276 265 274 284 281 276 287 299 293 296 306 309 318 314 292 285 272 256 250 219 188 175 196 192 170
8 346 358 2 331 282 327 342 324 310 312 323 314 297 290 281 281 277 257 307 321 305 292 294 286 277 273 271 271 289 324 311 299 313 323 305 292 289 258 230 158 137 160 259 242 195 211 256 266 273 274 274 274 275 282 284 282 280 279 279 278 272 271 274 276 273 269 271 279 285 284 281 286 295 299 303 305 302 303 293 259 245 245 208 182 215 218 196
4 349 346 341 328 320 326 316 296 292 295 320 302 288 291 294 291 279 258 266 331 324 321 312 306 308 296 278 276 18 40 21 352 348 354 345 324 304 304 301 280 248 234 255 251 156 150 255 288 294 285 281 282 283 285 282 280 282 281 282 285 282 278 282 288 283 272 269 276 282 287 288 291 299 299 296 293 286 280 277 264 249 244 225 208 225 231 227
0 350 342 333 325 329 319 295 278 288 301 4 341 322 313 307 304 293 293 19 350 334 345 335 328 331 318 303 343 43 33 10 354 350 341 330 317 306 310 308 304 298 275 265 257 154 162 259 301 303 284 281 285 282 280 281 282 281 279 282 286 284 283 279 271 270 274 275 280 286 288 293 312 310 295 291 299 298 279 268 275 290 275 249 233 237 239 239
5 357 349 340 314 300 307 303 319 342 348 355 351 340 317 306 315 322 340 357 313 299 8 358 335 320 325 351 23 25 359 338 331 328 322 310 296 290 288 282 285 294 292 280 268 230 237 258 276 279 277 285 288 288 296 302 291 279 283 301 294 292 309 303 283 278 281 275 274 277 272 291 347 337 311 303 325 338 333 320 327 339 329 313 282 253 238 231